Location: Newark
(39.8867°N, 94.3600°W)
Time: 21:49:50
(UTC+00:00)

N. Korean satellite - Pass Details

Date: 30 January 2020
Orbit: 456 x 505 km, 97.2° (Epoch: 19 February)

Event Time Altitude Azimuth Distance (km) Brightness Sun altitude
Rises 00:00:54 0° 196° (SSW) 2,458 10.7 -5.9°
Reaches altitude 10° 00:03:15 10° 213° (SSW) 1,591 10.0 -6.3°
Maximum altitude 00:05:56 22° 265° (W) 1,064 9.5 -6.8°
Drops below altitude 10° 00:08:39 10° 317° (NW) 1,609 9.6 -7.3°
Sets 00:11:03 0° 334° (NNW) 2,494 10.3 -7.7°
